EW4931 Weather Reports


Display with metric or nautical units.
time (UTC)temp
F
wind
direction
speed
MPH
gust
MPH
rain 1hr
in
rain 24hr
in
rain mn
in
humidity
%
barometer
mb
20260902182152 63 268 3.0 6.0 0.00 0.00 0.00 58 1007.3
20260902181653 63 298 2.0 7.0 0.00 0.00 0.00 57 1007.3
20260902181153 63 288 4.0 10.0 0.00 0.00 0.00 57 1007.3
20260902180652 64 285 4.0 10.0 0.00 0.00 0.00 56 1007.2
20260902180418 64 302 3.0 10.0 0.00 0.00 0.00 57 1007.2
20260902175654 64 288 5.0 12.0 0.00 0.00 0.00 56 1007.2
20260902175152 64 262 6.0 12.0 0.00 0.00 0.00 56 1007.2
20260902174652 65 296 3.0 10.0 0.00 0.00 0.00 57 1007.1
20260902174152 65 275 4.0 7.0 0.00 0.00 0.00 57 1007.1
20260902173652 65 310 3.0 7.0 0.00 0.00 0.00 57 1006.9
20260902173153 65 292 3.0 7.0 0.00 0.00 0.00 56 1006.9
20260902172652 66 245 4.0 7.0 0.00 0.00 0.00 55 1006.8
20260902172152 66 264 4.0 9.0 0.00 0.00 0.00 55 1006.8
20260902171652 67 279 4.0 11.0 0.00 0.00 0.00 54 1006.8
20260902171152 67 251 3.0 12.0 0.00 0.00 0.00 54 1006.7
20260902170651 67 298 6.0 14.0 0.00 0.00 0.00 54 1006.7
20260902170151 67 266 5.0 14.0 0.00 0.00 0.00 55 1006.7
20260902165911 68 258 5.0 10.0 0.00 0.00 0.00 56 1006.6
20260902165151 68 299 3.0 10.0 0.00 0.00 0.00 57 1006.6
20260902164912 68 310 5.0 13.0 0.00 0.00 0.00 56 1006.6
20260902164151 68 281 6.0 13.0 0.00 0.00 0.00 56 1006.5
20260902163651 69 288 6.0 13.0 0.00 0.00 0.00 57 1006.4
20260902163150 69 283 4.0 10.0 0.00 0.00 0.00 62 1006.4
20260902162650 69 228 3.0 10.0 0.00 0.00 0.00 64 1006.4
20260902162150 69 261 2.0 7.0 0.00 0.00 0.00 64 1006.4
20260902161650 69 261 1.0 5.0 0.00 0.00 0.00 65 1006.4
20260902161632 69 226 2.0 6.0 0.00 0.00 0.00 66 1006.4
20260902160916 69 235 3.0 6.0 0.00 0.00 0.00 66 1006.4
20260902160150 68 247 2.0 9.0 0.00 0.00 0.00 67 1006.4
20260902155650 69 241 4.0 9.0 0.00 0.00 0.00 67 1006.4
20260902155149 69 231 3.0 10.0 0.00 0.00 0.00 67 1006.4
20260902154649 68 213 4.0 10.0 0.00 0.00 0.00 68 1006.4
20260902154149 68 258 3.0 7.0 0.00 0.00 0.00 68 1006.4
20260902154135 68 247 2.0 11.0 0.00 0.00 0.00 67 1006.4
20260902153149 68 252 2.0 11.0 0.00 0.00 0.00 67 1006.5
20260902152649 68 221 2.0 9.0 0.00 0.00 0.00 67 1006.5
20260902152149 69 250 3.0 9.0 0.00 0.00 0.00 67 1006.6
20260902151913 69 276 3.0 9.0 0.00 0.00 0.00 68 1006.6
20260902151148 69 299 2.0 9.0 0.00 0.00 0.00 68 1006.7
20260902150915 69 266 4.0 9.0 0.00 0.00 0.00 68 1006.8
20260902150149 69 231 4.0 9.0 0.00 0.00 0.00 68 1006.8
20260902145648 69 275 5.0 9.0 0.00 0.00 0.00 68 1006.8
20260902145151 69 251 4.0 7.0 0.00 0.00 0.00 69 1006.8
20260902144649 69 265 2.0 11.0 0.00 0.00 0.00 69 1006.8
20260902144149 69 285 7.0 11.0 0.00 0.00 0.00 68 1006.9
20260902143915 70 271 4.0 13.0 0.00 0.00 0.00 68 1006.9
20260902143409 70 188 5.0 18.0 0.00 0.00 0.00 67 1006.9
20260902142648 70 292 4.0 18.0 0.00 0.00 0.00 67 1006.9
20260902142148 69 221 3.0 9.0 0.00 0.00 0.00 68 1006.9
20260902141648 69 274 5.0 14.0 0.00 0.00 0.00 67 1006.9
20260902141148 69 257 4.0 14.0 0.00 0.00 0.00 67 1006.9
20260902140647 68 262 3.0 9.0 0.00 0.00 0.00 69 1007.1
20260902140147 68 206 2.0 9.0 0.00 0.00 0.00 69 1007.1
20260902135647 69 266 3.0 9.0 0.00 0.00 0.00 69 1007.1
20260902135147 68 271 3.0 9.0 0.00 0.00 0.00 70 1007.3
20260902134645 69 268 2.0 10.0 0.00 0.00 0.00 70 1007.3
20260902134417 69 275 3.0 10.0 0.00 0.00 0.00 68 1007.3
20260902133647 69 286 3.0 13.0 0.00 0.00 0.00 68 1007.3
20260902133146 69 230 6.0 13.0 0.00 0.00 0.00 68 1007.4
20260902132646 69 261 5.0 10.0 0.00 0.00 0.00 69 1007.3
20260902132147 68 250 2.0 10.0 0.00 0.00 0.00 70 1007.4
20260902131647 68 262 4.0 10.0 0.00 0.00 0.00 69 1007.4
20260902131146 68 243 3.0 15.0 0.00 0.00 0.00 70 1007.4
20260902130646 68 274 3.0 15.0 0.00 0.00 0.00 70 1007.4
20260902130411 69 200 5.0 7.0 0.00 0.00 0.00 69 1007.5
20260902125907 69 264 4.0 9.0 0.00 0.00 0.00 70 1007.5
20260902125404 68 288 3.0 10.0 0.00 0.00 0.00 70 1007.5
20260902125137 68 254 3.0 10.0 0.00 0.00 0.00 70 1007.5
20260902124627 67 213 2.0 11.0 0.00 0.00 0.00 71 1007.6
20260902123646 67 269 5.0 11.0 0.00 0.00 0.00 71 1007.6
20260902123146 68 279 5.0 11.0 0.00 0.00 0.00 70 1007.7
20260902122645 68 353 4.0 11.0 0.00 0.00 0.00 70 1007.7
20260902122145 67 269 4.0 9.0 0.00 0.00 0.00 70 1007.7
20260902121908 67 264 4.0 10.0 0.00 0.00 0.00 71 1007.8
20260902121145 67 179 4.0 12.0 0.00 0.00 0.00 71 1007.8
20260902120645 67 275 7.0 12.0 0.00 0.00 0.00 69 1007.9
20260902120145 68 266 5.0 9.0 0.00 0.00 0.00 69 1007.9
20260902115645 68 283 2.0 7.0 0.00 0.00 0.00 70 1008.0
20260902115144 67 255 4.0 10.0 0.00 0.00 0.00 70 1007.9
20260902114646 67 250 4.0 10.0 0.00 0.00 0.00 70 1008.0
20260902114143 67 261 5.0 13.0 0.00 0.00 0.00 69 1008.1
20260902113643 67 299 5.0 13.0 0.00 0.00 0.00 70 1008.0
20260902113143 67 275 4.0 12.0 0.00 0.00 0.00 69 1008.1
20260902112643 67 213 5.0 12.0 0.00 0.00 0.00 70 1008.1
20260902112143 67 327 3.0 14.0 0.00 0.00 0.00 71 1008.1
20260902111642 67 240 2.0 14.0 0.00 0.00 0.00 71 1008.1
20260902111144 67 295 7.0 11.0 0.00 0.00 0.00 70 1008.2
20260902110906 67 275 5.0 15.0 0.00 0.00 0.00 70 1008.2
20260902110143 67 268 6.0 15.0 0.00 0.00 0.00 70 1008.2
20260902105641 67 285 5.0 10.0 0.00 0.00 0.00 70 1008.2
20260902105142 67 296 7.0 13.0 0.00 0.00 0.00 70 1008.2
20260902104643 66 258 5.0 13.0 0.00 0.00 0.00 70 1008.2
20260902104142 66 288 5.0 14.0 0.00 0.00 0.00 70 1008.3
20260902103631 66 305 8.0 14.0 0.00 0.00 0.00 70 1008.3
20260902103131 67 268 6.0 13.0 0.00 0.00 0.00 69 1008.2
20260902102631 68 268 4.0 10.0 0.00 0.00 0.00 69 1008.3
20260902102131 67 233 4.0 13.0 0.00 0.00 0.00 70 1008.4
20260902101853 67 281 6.0 13.0 0.00 0.00 0.00 71 1008.4
20260902101131 66 269 5.0 11.0 0.00 0.00 0.00 72 1008.4
20260902100631 66 285 4.0 10.0 0.00 0.00 0.00 72 1008.3
20260902100131 66 269 4.0 13.0 0.00 0.00 0.00 72 1008.4
20260902095631 66 268 6.0 13.0 0.00 0.00 0.00 71 1008.3
20260902095132 66 302 4.0 10.0 0.00 0.00 0.00 73 1008.4
20260902094632 65 309 3.0 10.0 0.00 0.00 0.00 72 1008.4
20260902094131 65 310 4.0 11.0 0.00 0.00 0.00 73 1008.5
20260902093858 66 281 6.0 11.0 0.00 0.00 0.00 72 1008.5
20260902093131 66 234 2.0 9.0 0.00 0.00 0.00 73 1008.5
20260902092631 66 221 3.0 10.0 0.00 0.00 0.00 73 1008.4
20260902092131 66 258 4.0 10.0 0.00 0.00 0.00 73 1008.4
20260902091604 65 262 2.0 10.0 0.00 0.00 0.00 75 1008.5
20260902091105 64 234 4.0 10.0 0.00 0.00 0.00 75 1008.5
20260902090605 65 268 6.0 10.0 0.00 0.00 0.00 73 1008.5
20260902090325 65 281 4.0 10.0 0.00 0.00 0.00 76 1008.4
20260902085604 65 221 3.0 6.0 0.00 0.00 0.00 75 1008.5
20260902085104 65 220 3.0 9.0 0.00 0.00 0.00 77 1008.4
20260902084605 64 288 4.0 9.0 0.00 0.00 0.00 77 1008.4
20260902084106 63 290 3.0 6.0 0.00 0.00 0.00 78 1008.4
20260902083604 63 234 2.0 10.0 0.00 0.00 0.00 79 1008.4
20260902083335 63 298 5.0 10.0 0.00 0.00 0.00 79 1008.4
20260902082605 63 266 4.0 7.0 0.00 0.00 0.00 79 1008.4
20260902082105 63 224 3.0 9.0 0.00 0.00 0.00 79 1008.4
20260902081604 63 269 5.0 9.0 0.00 0.00 0.00 80 1008.4
20260902081105 62 251 2.0 7.0 0.00 0.00 0.00 80 1008.4
20260902080605 62 203 2.0 6.0 0.00 0.00 0.00 81 1008.4
20260902080327 61 312 2.0 10.0 0.00 0.00 0.00 83 1008.4
20260902075604 61 295 6.0 10.0 0.00 0.00 0.00 83 1008.4
20260902075105 61 274 4.0 7.0 0.00 0.00 0.00 84 1008.4
20260902074605 61 278 4.0 9.0 0.00 0.00 0.00 84 1008.4
20260902074105 60 257 3.0 10.0 0.00 0.00 0.00 85 1008.4
20260902073605 60 251 6.0 10.0 0.00 0.00 0.00 84 1008.4
20260902073105 60 289 4.0 6.0 0.00 0.00 0.00 85 1008.4
20260902072605 60 278 5.0 6.0 0.00 0.00 0.00 85 1008.5
20260902072105 60 293 4.0 6.0 0.00 0.00 0.00 86 1008.5
20260902071605 59 293 2.0 6.0 0.00 0.00 0.00 87 1008.5
20260902071105 59 281 4.0 6.0 0.00 0.00 0.00 87 1008.5
20260902070605 59 302 3.0 9.0 0.00 0.00 0.00 88 1008.5
20260902070105 58 279 7.0 9.0 0.00 0.00 0.00 88 1008.4
20260902065605 58 271 4.0 9.0 0.00 0.00 0.00 88 1008.4
20260902065105 58 278 6.0 9.0 0.00 0.00 0.00 88 1008.4
20260902064605 0 271 5.0 7.0 0.00 0.00 0.00 1008.4
20260902064104 0 0.0 0.0 0.00 0.00 0.00 1008.4
20260902063605 0 0.0 0.0 0.00 0.00 0.00 1008.3
20260902063328 58 255 4.0 6.0 0.00 0.00 0.00 91 1008.3
20260902062605 58 255 4.0 6.0 0.00 0.00 0.00 91 1008.4
20260902062104 58 266 4.0 6.0 0.00 0.00 0.00 91 1008.4
20260902061605 57 283 4.0 6.0 0.00 0.00 0.00 91 1008.3
20260902061104 57 288 4.0 6.0 0.00 0.00 0.00 92 1008.3
20260902060604 57 268 4.0 6.0 0.00 0.00 0.00 92 1008.3
20260902060106 57 295 4.0 6.0 0.00 0.00 0.00 93 1008.4
20260902055825 57 265 2.0 7.0 0.00 0.00 0.00 93 1008.2
20260902055101 56 288 4.0 7.0 0.00 0.00 0.00 93 1008.1
20260902054549 56 261 4.0 5.0 0.00 0.00 0.00 94 1008.2
20260902054044 56 282 2.0 5.0 0.00 0.00 0.00 94 1008.2
20260902053759 56 272 2.0 5.0 0.00 0.00 0.00 94 1008.2
20260902053031 56 275 3.0 5.0 0.00 0.00 0.00 94 1008.2
20260902052532 56 278 0.0 4.0 0.00 0.00 0.00 94 1008.2
20260902052031 56 278 0.0 4.0 0.00 0.00 0.00 94 1008.3
20260902051531 56 261 0.0 5.0 0.00 0.00 0.00 94 1008.3
20260902051032 56 259 1.0 5.0 0.00 0.00 0.00 94 1008.2
20260902050530 56 276 3.0 5.0 0.00 0.00 0.00 94 1008.2
20260902050252 56 254 0.0 6.0 0.00 0.00 0.00 94 1008.1
20260902045530 55 268 3.0 6.0 0.00 0.00 0.00 95 1008.1
20260902045030 55 300 3.0 7.0 0.00 0.00 0.00 95 1008.1
20260902044525 55 316 4.0 7.0 0.00 0.00 0.00 95 1008.2
20260902044026 55 281 2.0 5.0 0.00 0.00 0.00 95 1008.2
20260902043744 55 272 1.0 9.0 0.00 0.00 0.00 95 1008.1
20260902043239 55 283 3.0 9.0 0.00 0.00 0.00 95 1008.1
20260902042516 55 272 1.0 5.0 0.00 0.00 0.00 95 1008.2
20260902042016 55 282 2.0 5.0 0.00 0.00 0.00 95 1008.2
20260902041517 55 285 2.0 5.0 0.00 0.00 0.00 95 1008.1
20260902041015 55 254 0.0 4.0 0.00 0.00 0.00 95 1008.2
20260902040515 55 282 0.0 3.0 0.00 0.00 0.00 95 1008.1
20260902040016 55 282 1.0 6.0 0.00 0.00 0.00 95 1008.1
20260902035514 55 286 1.0 7.0 0.00 0.00 0.00 96 1008.1
20260902035014 55 272 3.0 7.0 0.00 0.00 0.00 96 1008.2
20260902034515 55 279 1.0 5.0 0.00 0.00 0.00 96 1008.2
20260902034014 55 288 3.0 5.0 0.00 0.00 0.00 96 1008.2
20260902033514 55 295 2.0 6.0 0.00 0.00 0.00 96 1008.2
20260902033014 54 266 1.0 6.0 0.00 0.00 0.00 96 1008.3
20260902032514 54 278 1.0 3.0 0.00 0.00 0.00 95 1008.3
20260902032233 54 279 0.0 3.0 0.00 0.00 0.00 96 1008.2
20260902031513 54 298 1.0 3.0 0.00 0.00 0.00 95 1008.3
20260902031014 54 278 0.0 3.0 0.00 0.00 0.00 95 1008.3
20260902030513 54 310 1.0 3.0 0.00 0.00 0.00 95 1008.3
20260902030013 54 290 1.0 3.0 0.00 0.00 0.00 95 1008.3
20260902025514 54 73 0.0 2.0 0.00 0.00 0.00 95 1008.3
20260902025012 54 73 0.0 0.0 0.00 0.00 0.00 96 1008.3
20260902024513 53 73 0.0 1.0 0.00 0.00 0.00 95 1008.3
20260902024013 53 73 0.0 2.0 0.00 0.00 0.00 95 1008.4
20260902023513 53 73 0.0 2.0 0.00 0.00 0.00 95 1008.4
20260902023013 53 73 0.0 0.0 0.00 0.00 0.00 95 1008.3
20260902022513 53 73 0.0 0.0 0.00 0.00 0.00 95 1008.3
20260902022008 53 73 0.0 0.0 0.00 0.00 0.00 95 1008.2
20260902021503 53 73 0.0 0.0 0.00 0.00 0.00 95 1008.3
20260902021005 53 73 0.0 0.0 0.00 0.00 0.00 95 1008.2
20260902020505 53 73 0.0 0.0 0.00 0.00 0.00 95 1008.3
20260902020007 53 73 0.0 0.0 0.00 0.00 0.00 95 1008.2
20260902015505 53 73 0.0 0.0 0.00 0.00 0.00 95 1008.2
20260902015006 53 73 0.0 0.0 0.00 0.00 0.00 95 1008.2
20260902014506 53 73 0.0 0.0 0.00 0.00 0.00 95 1008.2
20260902014005 53 73 0.0 0.0 0.00 0.00 0.00 95 1008.1
20260902013506 53 73 0.0 0.0 0.00 0.00 0.00 95 1008.2
20260902013005 53 73 0.0 0.0 0.00 0.00 0.00 95 1008.2
20260902012505 53 73 0.0 0.0 0.00 0.00 0.00 95 1008.2
20260902012006 53 73 0.0 0.0 0.00 0.00 0.00 95 1008.2
20260902011504 53 73 0.0 0.0 0.00 0.00 0.00 95 1008.2
20260902011227 53 73 0.0 0.0 0.00 0.00 0.00 94 1008.2
20260902010505 53 73 0.0 0.0 0.00 0.00 0.00 95 1008.3
20260902010005 54 73 0.0 0.0 0.00 0.00 0.00 95 1008.3
20260902005504 54 73 0.0 0.0 0.00 0.00 0.00 95 1008.1
20260902005006 54 73 0.0 0.0 0.00 0.00 0.00 95 1008.2
20260902004505 54 73 0.0 0.0 0.00 0.00 0.00 94 1008.2
20260902004004 53 73 0.0 0.0 0.00 0.00 0.00 94 1008.2
20260902003723 54 73 0.0 0.0 0.00 0.00 0.00 94 1008.2
20260902003006 54 73 0.0 0.0 0.00 0.00 0.00 95 1008.2
20260902002505 54 73 0.0 0.0 0.00 0.00 0.00 95 1008.2
20260902002452 54 73 0.0 0.0 0.00 0.00 0.00 94 1008.2
20260902001506 54 73 0.0 0.0 0.00 0.00 0.00 94 1008.2
20260902001231 54 73 0.0 0.0 0.00 0.00 0.00 94 1008.0
20260902000505 54 73 0.0 0.0 0.00 0.00 0.00 94 1008.1
20260902000005 54 73 0.0 0.0 0.00 0.00 0.00 94 1008.2
20260901235728 54 73 0.0 0.0 0.00 0.00 0.00 94 1008.1
20260901235005 54 73 0.0 0.0 0.00 0.00 0.00 94 1008.2
20260901234506 54 73 0.0 0.0 0.00 0.00 0.00 94 1008.2
20260901234005 54 73 0.0 0.0 0.00 0.00 0.00 94 1008.2
20260901233505 55 73 0.0 0.0 0.00 0.00 0.00 94 1008.2
20260901233005 55 73 0.0 0.0 0.00 0.00 0.00 94 1008.2
20260901232725 55 73 0.0 0.0 0.00 0.00 0.00 94 1008.3
20260901232005 55 73 0.0 0.0 0.00 0.00 0.00 94 1008.3
20260901231724 55 73 0.0 0.0 0.00 0.00 0.00 94 1008.3
20260901231005 55 73 0.0 0.0 0.00 0.00 0.00 94 1008.3
20260901230730 55 73 0.0 0.0 0.00 0.00 0.00 94 1008.4
20260901230006 55 73 0.0 0.0 0.00 0.00 0.00 94 1008.3
20260901225736 56 73 0.0 0.0 0.00 0.00 0.00 94 1008.4
20260901225005 56 73 0.0 0.0 0.00 0.00 0.00 94 1008.3
20260901224956 56 73 0.0 0.0 0.00 0.00 0.00 94 1008.3
20260901224005 56 73 0.0 0.0 0.00 0.00 0.00 94 1008.3
20260901223505 56 73 0.0 0.0 0.00 0.00 0.00 94 1008.4
20260901223006 56 73 0.0 0.0 0.00 0.00 0.00 94 1008.3
20260901222505 56 73 0.0 0.0 0.00 0.00 0.00 94 1008.3
20260901222005 56 73 0.0 0.0 0.00 0.00 0.00 94 1008.3
20260901221505 57 73 0.0 0.0 0.00 0.00 0.00 94 1008.4
20260901221227 57 73 0.0 0.0 0.00 0.00 0.00 94 1008.3
20260901220505 57 73 0.0 0.0 0.00 0.00 0.00 94 1008.4
20260901220006 56 73 0.0 0.0 0.00 0.00 0.00 93 1008.5
20260901215505 57 73 0.0 0.0 0.00 0.00 0.00 93 1008.4
20260901215005 57 73 0.0 0.0 0.00 0.00 0.00 93 1008.3
20260901214504 57 73 0.0 0.0 0.00 0.00 0.00 93 1008.4
20260901214005 57 73 0.0 0.0 0.00 0.00 0.00 93 1008.4
20260901213718 57 73 0.0 0.0 0.00 0.00 0.00 94 1008.3
20260901212957 57 73 0.0 0.0 0.00 0.00 0.00 93 1008.3
20260901212452 57 73 0.0 0.0 0.00 0.00 0.00 93 1008.4
20260901212221 58 73 0.0 0.0 0.00 0.00 0.00 93 1008.3
20260901211446 58 73 0.0 0.0 0.00 0.00 0.00 93 1008.3
20260901210945 58 73 0.0 0.0 0.00 0.00 0.00 93 1008.4
20260901210446 58 73 0.0 0.0 0.00 0.00 0.00 93 1008.3
20260901205942 58 73 0.0 0.0 0.00 0.00 0.00 92 1008.3
20260901205441 58 73 0.0 0.0 0.00 0.00 0.00 92 1008.3
20260901205432 58 73 0.0 0.0 0.00 0.00 0.00 92 1008.4
20260901204438 58 73 0.0 0.0 0.00 0.00 0.00 92 1008.4
20260901203939 58 73 0.0 0.0 0.00 0.00 0.00 92 1008.4
20260901203923 59 73 0.0 0.0 0.00 0.00 0.00 92 1008.4
20260901202937 59 73 0.0 0.0 0.00 0.00 0.00 92 1008.5
20260901202659 59 73 0.0 0.0 0.00 0.00 0.00 92 1008.4
20260901201935 59 73 0.0 0.0 0.00 0.00 0.00 92 1008.4
20260901201433 60 73 0.0 0.0 0.00 0.00 0.00 92 1008.3
20260901200932 60 73 0.0 0.0 0.00 0.00 0.00 92 1008.4
20260901200652 60 73 0.0 0.0 0.00 0.00 0.00 92 1008.4
20260901195930 60 73 0.0 0.0 0.00 0.00 0.00 92 1008.4
20260901195431 60 73 0.0 0.0 0.00 0.00 0.00 91 1008.4
20260901194928 61 73 0.0 0.0 0.00 0.00 0.00 92 1008.3
20260901194429 61 73 0.0 0.0 0.00 0.00 0.00 91 1008.4
20260901193926 61 73 0.0 0.0 0.00 0.00 0.00 92 1008.4
20260901193426 61 73 0.0 0.0 0.00 0.00 0.00 91 1008.3
20260901192924 61 73 0.0 0.0 0.00 0.00 0.00 91 1008.4
20260901192422 61 73 0.0 2.0 0.00 0.00 0.00 91 1008.3
20260901191922 61 73 0.0 2.0 0.00 0.00 0.00 91 1008.3
20260901191423 61 73 1.0 3.0 0.00 0.00 0.00 91 1008.4
20260901190912 62 73 2.0 3.0 0.00 0.00 0.00 90 1008.4
20260901190404 62 73 1.0 3.0 0.00 0.00 0.00 90 1008.3
20260901190127 62 73 2.0 3.0 0.00 0.00 0.00 90 1008.3
20260901185405 62 73 2.0 3.0 0.00 0.00 0.00 89 1008.3
20260901185128 62 73 2.0 3.0 0.00 0.00 0.00 89 1008.2
20260901184406 62 73 2.0 3.0 0.00 0.00 0.00 89 1008.1
20260901183905 63 73 0.0 2.0 0.00 0.00 0.00 88 1008.2
20260901183403 63 73 2.0 4.0 0.00 0.00 0.00 88 1008.2
20260901182905 63 73 2.0 4.0 0.00 0.00 0.00 88 1008.2